Weather History for VTSP - March, 2014

Change the Weather History Date:

Friday, March 28, 2014

  Actual Average (WUND) Record (WUND)
Temperature  
Mean Temperature 86 °F -  
Max Temperature 97 °F 91 °F - (-1)
Min Temperature 75 °F 77 °F - (-1)
Cooling Degree Days 21    
Growing Degree Days 36 (Base 50)    
Moisture  
Dew Point 74 °F    
Average Humidity 70    
Maximum Humidity 94    
Minimum Humidity 34    
Precipitation  
Precipitation 0.04 in 0.20 in - ()
Sea Level Pressure  
Sea Level Pressure 29.82 in    
Wind  
Wind Speed 6 mph ()    
Max Wind Speed 17 mph    
Max Gust Speed -    
Visibility 4.3 miles    
Events Rain , Thunderstorm    
Averages and records for this station are not official NWS values.
T = Trace of Precipitation, MM = Missing Value Source: Averaged Metar Reports

Daily Weather History Graph

Daily Weather History Graph

Search for Another Location

Airport or City:

Trip Planner

Search our weather history database for the weather conditions in past years. The results will help you decide how hot, cold, wet, or windy it might be!

Date:

Astronomy

Mar. 28, 2014 Rise Set
Actual Time 6:26 AM ICT 6:36 PM ICT
Civil Twilight 6:06 AM ICT 6:57 PM ICT
Nautical Twilight 5:41 AM ICT 7:22 PM ICT
Astronomical Twilight 5:17 AM ICT 7:46 PM ICT
Moon 4:05 AM ICT (3/28) 4:23 PM ICT (3/28)
Length of Visible Light 12h 51m
Length of Day
12h 09m
Waning Crescent, 9% of the Moon is Illuminated
Mar 28
Waning Crescent
Mar 31
New
Apr 7
First Quarter
Apr 15
Full
Apr 22
Last Quarter

Hourly Weather History & Observations

Time (ICT) Temp. Heat Index Dew Point Humidity Pressure Visibility Wind Dir Wind Speed Gust Speed Precip Events Conditions
12:00 AM 82.4 °F 87.2 °F 71.6 °F 70% 29.89 in 4.3 mi NNE 11.5 mph - N/A Thunderstorm Thunderstorm
12:30 AM 77.0 °F - 68.0 °F 74% 29.86 in 1.9 mi NNW 9.2 mph - N/A Rain Rain
1:00 AM 77 °F - 74 °F 89% 29.81 in 3 mi NW 3.5 mph - - Rain , Thunderstorm Thunderstorms and Rain
1:00 AM 77.0 °F - 71.6 °F 83% 29.83 in 3.1 mi ESE 2.3 mph - N/A   Mostly Cloudy
1:30 AM 77.0 °F - 71.6 °F 83% 29.83 in 4.3 mi Variable 3.5 mph - N/A   Mostly Cloudy
2:00 AM 77.0 °F - 73.4 °F 89% 29.83 in 4.3 mi North 3.5 mph - N/A   Mostly Cloudy
2:30 AM 77.0 °F - 73.4 °F 89% 29.83 in 4.3 mi ESE 3.5 mph - N/A   Mostly Cloudy
3:00 AM 77.0 °F - 73.4 °F 89% 29.80 in 4.3 mi Variable 2.3 mph - N/A   Mostly Cloudy
4:00 AM 77 °F - 72 °F 81% 29.78 in 6 mi Calm Calm - -   Mist
4:00 AM 77.0 °F - 73.4 °F 89% 29.80 in 4.3 mi ESE 1.2 mph - N/A   Mostly Cloudy
5:00 AM 77.0 °F - 73.4 °F 89% 29.80 in 4.3 mi SE 2.3 mph - N/A   Mostly Cloudy
5:30 AM 77.0 °F - 73.4 °F 89% 29.83 in 4.3 mi ENE 1.2 mph - N/A   Mostly Cloudy
6:00 AM 77.0 °F - 73.4 °F 89% 29.80 in 4.3 mi SE 3.5 mph - N/A   Mostly Cloudy
6:30 AM 75.2 °F - 73.4 °F 94% 29.83 in 4.3 mi SSE 1.2 mph - N/A   Mostly Cloudy
7:00 AM 78 °F - 76 °F 91% 29.80 in 5 mi Calm Calm - -   Mist
7:00 AM 77.0 °F - 73.4 °F 89% 29.83 in 4.3 mi East 4.6 mph - N/A   Mostly Cloudy
8:00 AM 82.4 °F 89.5 °F 75.2 °F 79% 29.86 in 4.3 mi East 4.6 mph - N/A   Mostly Cloudy
8:30 AM 84.2 °F 92.3 °F 75.2 °F 74% 29.89 in 4.3 mi East 6.9 mph - N/A   Mostly Cloudy
9:00 AM 86.0 °F 95.1 °F 75.2 °F 70% 29.89 in 4.3 mi ENE 5.8 mph - N/A   Mostly Cloudy
9:30 AM 86.0 °F 95.1 °F 75.2 °F 70% 29.89 in 4.3 mi ENE 6.9 mph - N/A   Mostly Cloudy
10:00 AM 89 °F - 76 °F 57% 29.86 in 5 mi South 5.8 mph - -   Mist
10:00 AM 87.8 °F 97.6 °F 75.2 °F 66% 29.89 in 4.3 mi ENE 9.2 mph - N/A   Mostly Cloudy
10:30 AM 87.8 °F 95.6 °F 73.4 °F 62% 29.89 in 4.3 mi East 8.1 mph - N/A   Mostly Cloudy
11:00 AM 89.6 °F 96.2 °F 71.6 °F 55% 29.89 in 4.3 mi East 8.1 mph - N/A   Mostly Cloudy
11:30 AM 91.4 °F 96.8 °F 69.8 °F 49% 29.89 in 4.3 mi ENE 9.2 mph - N/A   Mostly Cloudy
12:00 PM 91.4 °F 95.4 °F 68.0 °F 46% 29.86 in 4.3 mi East 6.9 mph - N/A   Mostly Cloudy
12:30 PM 93.2 °F 94.9 °F 64.4 °F 38% 29.86 in 4.3 mi Variable 6.9 mph - N/A   Mostly Cloudy
1:00 PM 95 °F - 69 °F 34% 29.82 in 5 mi East 5.8 mph - -   Haze
1:00 PM 95.0 °F 98.5 °F 66.2 °F 39% 29.83 in 4.3 mi Variable 4.6 mph - N/A   Mostly Cloudy
1:30 PM 95.0 °F 98.5 °F 66.2 °F 39% 29.80 in 4.3 mi Variable 3.5 mph - N/A   Mostly Cloudy
2:00 PM 93.2 °F 100.5 °F 71.6 °F 49% 29.80 in 4.3 mi West 9.2 mph - N/A   Mostly Cloudy
2:30 PM 93.2 °F 102.4 °F 73.4 °F 52% 29.77 in 4.3 mi West 12.7 mph - N/A   Mostly Cloudy
3:00 PM 91.4 °F 100.1 °F 73.4 °F 55% 29.77 in 4.3 mi West 13.8 mph - N/A   Mostly Cloudy
3:30 PM 91.4 °F 100.1 °F 73.4 °F 55% 29.77 in 4.3 mi West 17.3 mph - N/A   Mostly Cloudy
4:00 PM 91 °F - 77 °F 55% 29.72 in 5 mi North 5.8 mph - -   Haze
4:00 PM 91.4 °F 100.1 °F 73.4 °F 55% 29.74 in 4.3 mi West 13.8 mph - N/A   Mostly Cloudy
4:30 PM 87.8 °F 95.6 °F 73.4 °F 62% 29.74 in 4.3 mi WNW 13.8 mph - N/A   Mostly Cloudy
5:00 PM 87.8 °F 97.6 °F 75.2 °F 66% 29.74 in 4.3 mi WNW 15.0 mph - N/A   Mostly Cloudy
5:30 PM 87.8 °F 97.6 °F 75.2 °F 66% 29.74 in 4.3 mi WNW 12.7 mph - N/A   Mostly Cloudy
6:00 PM 87.8 °F 97.6 °F 75.2 °F 66% 29.77 in 4.3 mi WNW 11.5 mph - N/A   Mostly Cloudy
6:30 PM 86.0 °F 95.1 °F 75.2 °F 70% 29.74 in 4.3 mi WNW 10.4 mph - N/A   Mostly Cloudy
7:00 PM 87 °F - 78 °F 69% 29.72 in 5 mi NNW 8.1 mph - -   Mist
7:00 PM 86.0 °F 96.9 °F 77.0 °F 74% 29.77 in 4.3 mi WNW 10.4 mph - N/A   Mostly Cloudy
7:30 PM 86.0 °F 96.9 °F 77.0 °F 74% 29.77 in 4.3 mi WNW 10.4 mph - N/A   Mostly Cloudy
8:00 PM 86.0 °F 95.1 °F 75.2 °F 70% 29.80 in 4.3 mi WNW 10.4 mph - N/A   Mostly Cloudy
8:30 PM 86.0 °F 96.9 °F 77.0 °F 74% 29.80 in 4.3 mi WNW 10.4 mph - N/A   Mostly Cloudy
9:00 PM 86.0 °F 96.9 °F 77.0 °F 74% 29.83 in 4.3 mi WNW 10.4 mph - N/A   Mostly Cloudy
9:30 PM 84.2 °F 94.1 °F 77.0 °F 79% 29.83 in 4.3 mi NNW 4.6 mph - N/A   Mostly Cloudy
10:00 PM 86 °F - 78 °F 73% 29.81 in 5 mi Calm Calm - -   Mist
10:00 PM 84.2 °F 94.1 °F 77.0 °F 79% 29.86 in 4.3 mi NNW 4.6 mph - N/A   Mostly Cloudy
10:30 PM 84.2 °F 92.3 °F 75.2 °F 74% 29.86 in 4.3 mi Variable 2.3 mph - N/A   Mostly Cloudy
11:00 PM 84.2 °F 92.3 °F 75.2 °F 74% 29.86 in 4.3 mi NW 3.5 mph - N/A   Mostly Cloudy
11:30 PM 82.4 °F 89.5 °F 75.2 °F 79% 29.86 in 4.3 mi Variable 2.3 mph - N/A   Mostly Cloudy